Regional Weather Roundup
Issued by NWS

Home | Current Version | Previous Version | Graphics & Text | Print | Product List | Glossary On
Versions: 1 2 3 4 5 6 7 8 9 10 11 12 13 14 15 16 17 18 19 20 21 22 23 24 25 26 27 28 29 30 31 32 33 34 35 36 37 38 39 40 41 42 43 44 45 46 47 48 49 50
000
ASUS43 KBIS 250731
RWRND
NORTH DAKOTA REGIONAL WEATHER ROUNDUP
NATIONAL WEATHER SERVICE EASTERN NORTH DAKOTA/GRAND FORKS ND
100 AM CST SUN FEB 25 2018

  NOTE: "FAIR" INDICATES FEW OR NO CLOUDS BELOW 12,000 FEET WITH NO
  SIGNIFICANT WEATHER AND/OR OBSTRUCTIONS TO VISIBILITY.

NDZ001>003-009>011-017-250800-
...NORTHWEST NORTH DAKOTA...

CITY           SKY/WX    TMP DP  RH WIND       PRES   REMARKS
WILLISTON      MOCLDY    23  17  78 W14       29.60R WCI  11
MINOT          CLOUDY    22  17  81 W15       29.51S WCI   9
MINOT AFB      MIX PCPN  21  18  86 W12         N/A  WCI   9
$$

NDZ018>021-031>035-040>046-250800-
...SOUTHWEST NORTH DAKOTA...

CITY           SKY/WX    TMP DP  RH WIND       PRES   REMARKS
BISMARCK       MOCLDY    16  11  80 W6        29.59R WCI   7
DICKINSON      CLOUDY    18  14  84 W17       29.58R WCI   3
GARRISON         N/A     20  17  88 W14       29.54S WCI   7
HETTINGER      MOCLDY    13   7  77 W22       29.64R WCI  -6
$$

NDZ004>008-012>016-024-026-027-054-250800-
...NORTHEAST NORTH DAKOTA...

CITY           SKY/WX    TMP DP  RH WIND       PRES   REMARKS
GRAND FORKS    CLOUDY    14  12  92 W6        29.53F WCI   5
GRAND FORKS AF CLOUDY    16  14  93 W3        29.52F
DEVILS LAKE    MOCLDY     7   4  87 SW6       29.51F WCI  -3
$$

NDZ022-023-025-028>030-036>039-047>053-250800-
...SOUTHEAST NORTH DAKOTA...

CITY           SKY/WX    TMP DP  RH WIND       PRES   REMARKS
JAMESTOWN      FAIR       5   2  87 W3        29.52F
FARGO          CLOUDY    13  12  96 W12       29.54S WCI  -1
WAHPETON       CLOUDY    16  12  86 W10       29.55F WCI   3
$$



USA.gov is the U.S. government's official web portal to all federal, state and local government web resources and services.